FLOCK 2E'-14

Last updated on Oct. 26, 2018, 12:02 a.m. UTC

1 41762U 98067KJ  18297.65813860  .04633274  12113-4  12191-2 0  9991
2 41762  51.6102  21.6904 0009509   2.2053 357.9008 16.27579428120651

Satellite is not in orbit.